MTN005 KIAH-KHSV

Flight info

Callsign MTN005
Flight time 1h 27m
Altitude 33000
Route STRYA8 DPATY MHZ IGB
Aircraft CRJ7/M-SDFGIRWY/S

Departure

Time 2026-04-23 13:43
Airport George Bush Intercontinental Airport (KIAH)

Arrival

Time 2026-04-23 15:11
Airport Huntsville International Airport (KHSV)
Time Latitude Longitude Altitude Speed Heading
2026-04-23 13:02 29.98499 -95.34740 105 ft 0 kts 44°
2026-04-23 13:31 29.98488 -95.34752 104 ft 2 kts 44°
2026-04-23 13:32 29.98474 -95.34775 102 ft 4 kts 73°
2026-04-23 13:32 29.98478 -95.34799 105 ft 4 kts 138°
2026-04-23 13:32 29.98500 -95.34805 104 ft 4 kts 180°
2026-04-23 13:32 29.98515 -95.34805 105 ft 0 kts 180°
2026-04-23 13:36 29.98514 -95.34805 105 ft 1 kts 180°
2026-04-23 13:36 29.98463 -95.34805 104 ft 13 kts 180°
2026-04-23 13:36 29.98375 -95.34839 105 ft 12 kts 249°
2026-04-23 13:36 29.98378 -95.34920 105 ft 7 kts 273°
2026-04-23 13:37 29.98379 -95.34984 105 ft 14 kts 271°
2026-04-23 13:37 29.98382 -95.35108 105 ft 14 kts 272°
2026-04-23 13:37 29.98407 -95.35199 104 ft 10 kts 308°
2026-04-23 13:37 29.98469 -95.35255 105 ft 13 kts 330°
2026-04-23 13:38 29.98527 -95.35293 105 ft 5 kts 332°
2026-04-23 13:38 29.98542 -95.35302 105 ft 0 kts 332°
2026-04-23 13:38 29.98599 -95.35337 105 ft 18 kts 332°
2026-04-23 13:38 29.98727 -95.35415 105 ft 22 kts 332°
2026-04-23 13:39 29.98865 -95.35499 104 ft 20 kts 333°
2026-04-23 13:39 29.98945 -95.35546 105 ft 8 kts 333°
2026-04-23 13:39 29.99019 -95.35591 105 ft 17 kts 328°
2026-04-23 13:39 29.99080 -95.35671 105 ft 0 kts 287°
2026-04-23 13:40 29.99082 -95.35676 105 ft 3 kts 289°
2026-04-23 13:40 29.99096 -95.35729 105 ft 10 kts 275°
2026-04-23 13:40 29.99101 -95.35812 105 ft 13 kts 274°
2026-04-23 13:40 29.99081 -95.35913 104 ft 10 kts 199°
2026-04-23 13:41 29.99055 -95.35943 104 ft 0 kts 259°
2026-04-23 13:41 29.99012 -95.36030 105 ft 10 kts 197°
2026-04-23 13:41 29.98976 -95.36025 106 ft 21 kts 162°
2026-04-23 13:41 29.98879 -95.35965 106 ft 8 kts 161°
2026-04-23 13:42 29.98825 -95.35944 106 ft 14 kts 161°
2026-04-23 13:42 29.98750 -95.35872 107 ft 15 kts 93°
2026-04-23 13:42 29.98731 -95.35760 106 ft 15 kts 131°
2026-04-23 13:42 29.98620 -95.35681 106 ft 37 kts 152°
2026-04-23 13:43 29.98131 -95.35373 104 ft 121 kts 153°
2026-04-23 13:43 29.97194 -95.34807 271 ft 167 kts 152°
2026-04-23 13:43 29.96269 -95.34342 1628 ft 138 kts 158°
2026-04-23 13:43 29.95358 -95.33798 2327 ft 152 kts 152°
2026-04-23 13:44 29.94442 -95.33188 2992 ft 156 kts 152°
2026-04-23 13:44 29.93446 -95.32517 3348 ft 177 kts 151°
2026-04-23 13:44 29.92329 -95.31761 3730 ft 195 kts 151°
2026-04-23 13:44 29.91217 -95.31006 4192 ft 203 kts 151°
2026-04-23 13:45 29.90009 -95.30142 4831 ft 207 kts 142°
2026-04-23 13:45 29.89334 -95.28676 5386 ft 218 kts 98°
2026-04-23 13:45 29.89715 -95.26983 5939 ft 227 kts 56°
2026-04-23 13:45 29.90981 -95.25918 6508 ft 231 kts 18°
2026-04-23 13:46 29.92535 -95.25428 7076 ft 232 kts 13°
2026-04-23 13:46 29.94099 -95.24978 7658 ft 233 kts 12°
2026-04-23 13:46 29.95677 -95.24548 8470 ft 231 kts 11°
2026-04-23 13:46 29.97233 -95.24125 9328 ft 230 kts 11°
2026-04-23 13:47 29.98792 -95.23729 10128 ft 229 kts
2026-04-23 13:47 30.00320 -95.24085 10811 ft 227 kts 332°
2026-04-23 13:47 30.01746 -95.24896 11483 ft 230 kts 335°
2026-04-23 13:47 30.03248 -95.25563 12165 ft 233 kts 342°
2026-04-23 13:48 30.04842 -95.25978 12812 ft 238 kts 349°
2026-04-23 13:48 30.06586 -95.26186 12932 ft 267 kts 355°
2026-04-23 13:48 30.08542 -95.26045 12979 ft 299 kts 15°
2026-04-23 13:48 30.10466 -95.24897 13189 ft 324 kts 32°
2026-04-23 13:49 30.12329 -95.23353 13500 ft 343 kts 35°
2026-04-23 13:49 30.14276 -95.21654 13881 ft 358 kts 35°
2026-04-23 13:49 30.16278 -95.19918 14524 ft 362 kts 34°
2026-04-23 13:49 30.18335 -95.18222 15197 ft 365 kts 33°
2026-04-23 13:50 30.20443 -95.16549 15867 ft 369 kts 32°
2026-04-23 13:50 30.22572 -95.14851 16504 ft 374 kts 32°
2026-04-23 13:50 30.24719 -95.13127 17129 ft 378 kts 32°
2026-04-23 13:50 30.26894 -95.11391 17732 ft 382 kts 32°
2026-04-23 13:51 30.29089 -95.09635 18320 ft 386 kts 32°
2026-04-23 13:51 30.31303 -95.07862 18845 ft 388 kts 32°
2026-04-23 13:51 30.33531 -95.06076 19382 ft 391 kts 32°
2026-04-23 13:51 30.35773 -95.04278 19910 ft 393 kts 32°
2026-04-23 13:52 30.38027 -95.02466 20438 ft 396 kts 32°
2026-04-23 13:52 30.40301 -95.00644 20934 ft 399 kts 31°
2026-04-23 13:52 30.42614 -94.98858 21433 ft 401 kts 30°
2026-04-23 13:52 30.44951 -94.97080 21914 ft 403 kts 30°
2026-04-23 13:53 30.47301 -94.95285 22377 ft 406 kts 30°
2026-04-23 13:53 30.49665 -94.93477 22831 ft 408 kts 30°
2026-04-23 13:53 30.52043 -94.91654 23301 ft 411 kts 30°
2026-04-23 13:53 30.54431 -94.89819 23717 ft 413 kts 30°
2026-04-23 13:54 30.56835 -94.87971 24086 ft 415 kts 30°
2026-04-23 13:54 30.59257 -94.86120 24453 ft 418 kts 30°
2026-04-23 13:54 30.61689 -94.84252 24817 ft 420 kts 30°
2026-04-23 13:54 30.64132 -94.82375 25165 ft 422 kts 30°
2026-04-23 13:55 30.66586 -94.80486 25502 ft 424 kts 30°
2026-04-23 13:55 30.69054 -94.78587 25815 ft 426 kts 30°
2026-04-23 13:55 30.71530 -94.76682 26147 ft 428 kts 30°
2026-04-23 13:55 30.73985 -94.74791 26449 ft 430 kts 30°
2026-04-23 13:56 30.76514 -94.72840 26756 ft 432 kts 30°
2026-04-23 13:56 30.79023 -94.70902 27045 ft 433 kts 30°
2026-04-23 13:56 30.81539 -94.68960 27351 ft 435 kts 30°
2026-04-23 13:56 30.84065 -94.67011 27639 ft 437 kts 30°
2026-04-23 13:57 30.86603 -94.65049 27930 ft 438 kts 29°
2026-04-23 13:57 30.89147 -94.63081 28213 ft 440 kts 29°
2026-04-23 13:57 30.91668 -94.61128 28474 ft 442 kts 29°
2026-04-23 13:57 30.94263 -94.59117 28748 ft 443 kts 29°
2026-04-23 13:58 30.96837 -94.57125 29003 ft 445 kts 29°
2026-04-23 13:58 30.99229 -94.54880 29218 ft 454 kts 43°
2026-04-23 13:58 31.01216 -94.51987 29453 ft 460 kts 49°
2026-04-23 13:58 31.03067 -94.48929 29681 ft 464 kts 53°
2026-04-23 13:59 31.04639 -94.45628 29892 ft 469 kts 60°
2026-04-23 13:59 31.06029 -94.42176 30097 ft 471 kts 61°
2026-04-23 13:59 31.07400 -94.38699 30280 ft 472 kts 61°
2026-04-23 13:59 31.08828 -94.35248 30456 ft 473 kts 59°
2026-04-23 14:00 31.09832 -94.32936 30578 ft 473 kts 59°
2026-04-23 14:00 31.11797 -94.28393 30801 ft 475 kts 59°
2026-04-23 14:00 31.13276 -94.24937 30966 ft 476 kts 59°
2026-04-23 14:00 31.14755 -94.21482 31111 ft 477 kts 59°
2026-04-23 14:01 31.16238 -94.18015 31263 ft 478 kts 59°
2026-04-23 14:01 31.17726 -94.14533 31407 ft 479 kts 60°
2026-04-23 14:01 31.19211 -94.11052 31578 ft 479 kts 60°
2026-04-23 14:01 31.20692 -94.07581 31802 ft 478 kts 60°
2026-04-23 14:02 31.22178 -94.04094 32002 ft 477 kts 60°
2026-04-23 14:02 31.23640 -94.00662 32559 ft 468 kts 60°
2026-04-23 14:02 31.25085 -93.97268 32819 ft 467 kts 60°
2026-04-23 14:02 31.26530 -93.93866 32936 ft 468 kts 60°
2026-04-23 14:03 31.27984 -93.90441 32995 ft 471 kts 60°
2026-04-23 14:03 31.30872 -93.83540 33026 ft 467 kts 62°
2026-04-23 14:04 31.33396 -93.76471 33033 ft 475 kts 65°
2026-04-23 14:04 31.35794 -93.69216 33042 ft 481 kts 65°
2026-04-23 14:05 31.38297 -93.61905 33049 ft 486 kts 65°
2026-04-23 14:05 31.40828 -93.54523 33051 ft 491 kts 65°
2026-04-23 14:06 31.43355 -93.47129 33053 ft 494 kts 65°
2026-04-23 14:06 31.45911 -93.39647 33053 ft 496 kts 65°
2026-04-23 14:07 31.48471 -93.32132 33055 ft 497 kts 66°
2026-04-23 14:07 31.52328 -93.20771 33057 ft 499 kts 66°
2026-04-23 14:08 31.54873 -93.13261 33058 ft 499 kts 66°
2026-04-23 14:08 31.57430 -93.05694 33059 ft 500 kts 66°
2026-04-23 14:09 31.59956 -92.98208 33055 ft 484 kts 66°
2026-04-23 14:09 31.62395 -92.90959 33048 ft 475 kts 66°
2026-04-23 14:10 31.64807 -92.83760 33047 ft 473 kts 66°
2026-04-23 14:10 31.67208 -92.76600 33045 ft 470 kts 67°
2026-04-23 14:11 31.69588 -92.69468 33045 ft 468 kts 67°
2026-04-23 14:11 31.71960 -92.62365 33048 ft 467 kts 67°
2026-04-23 14:12 31.74318 -92.55278 33047 ft 465 kts 68°
2026-04-23 14:12 31.76666 -92.48207 33051 ft 464 kts 68°
2026-04-23 14:13 31.79003 -92.41145 33052 ft 463 kts 68°
2026-04-23 14:13 31.81334 -92.34103 33051 ft 462 kts 68°
2026-04-23 14:14 31.83655 -92.27063 33057 ft 461 kts 68°
2026-04-23 14:14 31.85968 -92.20030 33060 ft 461 kts 68°
2026-04-23 14:15 31.88261 -92.13050 33056 ft 460 kts 68°
2026-04-23 14:15 31.90566 -92.06025 33058 ft 460 kts 68°
2026-04-23 14:16 31.92861 -91.99004 33059 ft 459 kts 68°
2026-04-23 14:16 31.95148 -91.91986 33067 ft 459 kts 68°
2026-04-23 14:17 31.97439 -91.84973 33068 ft 458 kts 68°
2026-04-23 14:17 31.99711 -91.77969 33070 ft 458 kts 68°
2026-04-23 14:18 32.01981 -91.70964 33079 ft 458 kts 68°
2026-04-23 14:18 32.04250 -91.63960 33079 ft 457 kts 68°
2026-04-23 14:19 32.06127 -91.58131 33085 ft 457 kts 69°
2026-04-23 14:19 32.08260 -91.51065 33087 ft 457 kts 72°
2026-04-23 14:20 32.10076 -91.43887 33092 ft 457 kts 73°
2026-04-23 14:20 32.11906 -91.36715 33097 ft 457 kts 73°
2026-04-23 14:21 32.13735 -91.29529 33096 ft 457 kts 73°
2026-04-23 14:21 32.15559 -91.22355 33099 ft 456 kts 73°
2026-04-23 14:22 32.17373 -91.15187 33094 ft 456 kts 73°
2026-04-23 14:22 32.19179 -91.08022 33092 ft 455 kts 73°
2026-04-23 14:23 32.20981 -91.00864 33093 ft 455 kts 73°
2026-04-23 14:23 32.22777 -90.93712 33091 ft 454 kts 73°
2026-04-23 14:24 32.24568 -90.86570 33088 ft 453 kts 73°
2026-04-23 14:24 32.26352 -90.79430 33094 ft 453 kts 73°
2026-04-23 14:25 32.28127 -90.72301 33095 ft 452 kts 73°
2026-04-23 14:25 32.29896 -90.65171 33107 ft 452 kts 73°
2026-04-23 14:26 32.31659 -90.58054 33107 ft 451 kts 73°
2026-04-23 14:26 32.33421 -90.50930 33111 ft 451 kts 73°
2026-04-23 14:27 32.35174 -90.43818 33112 ft 450 kts 73°
2026-04-23 14:27 32.36909 -90.36762 33113 ft 450 kts 73°
2026-04-23 14:28 32.38651 -90.29655 33132 ft 449 kts 73°
2026-04-23 14:28 32.40388 -90.22554 33130 ft 449 kts 73°
2026-04-23 14:29 32.42124 -90.15458 33127 ft 449 kts 73°
2026-04-23 14:29 32.43243 -90.12020 33127 ft 448 kts 62°
2026-04-23 14:29 32.44800 -90.08830 33126 ft 447 kts 57°
2026-04-23 14:30 32.48289 -90.02732 33123 ft 447 kts 53°
2026-04-23 14:30 32.52143 -89.96959 33117 ft 446 kts 50°
2026-04-23 14:31 32.56088 -89.91278 33103 ft 446 kts 51°
2026-04-23 14:31 32.59961 -89.85528 33093 ft 446 kts 51°
2026-04-23 14:32 32.63828 -89.79777 33073 ft 446 kts 51°
2026-04-23 14:32 32.67690 -89.74024 33061 ft 446 kts 51°
2026-04-23 14:33 32.71550 -89.68260 33059 ft 446 kts 51°
2026-04-23 14:33 32.75407 -89.62499 33045 ft 446 kts 51°
2026-04-23 14:34 32.79259 -89.56732 33036 ft 445 kts 51°
2026-04-23 14:34 32.83106 -89.50965 33044 ft 445 kts 51°
2026-04-23 14:35 32.86951 -89.45187 33057 ft 445 kts 51°
2026-04-23 14:35 32.90796 -89.39407 33064 ft 447 kts 51°
2026-04-23 14:36 32.94695 -89.33536 33078 ft 457 kts 51°
2026-04-23 14:36 32.98668 -89.27541 33075 ft 465 kts 51°
2026-04-23 14:37 33.02707 -89.21434 33122 ft 472 kts 51°
2026-04-23 14:37 33.06799 -89.15242 33163 ft 478 kts 51°
2026-04-23 14:38 33.10898 -89.09030 33173 ft 482 kts 51°
2026-04-23 14:38 33.15046 -89.02724 33180 ft 485 kts 51°
2026-04-23 14:39 33.19224 -88.96366 33164 ft 487 kts 52°
2026-04-23 14:39 33.23413 -88.89985 33133 ft 489 kts 52°
2026-04-23 14:40 33.27611 -88.83581 33118 ft 490 kts 51°
2026-04-23 14:40 33.31817 -88.77147 33131 ft 491 kts 51°
2026-04-23 14:41 33.35980 -88.70763 33155 ft 475 kts 52°
2026-04-23 14:41 33.39990 -88.64610 33154 ft 464 kts 51°
2026-04-23 14:42 33.43935 -88.58546 33148 ft 460 kts 51°
2026-04-23 14:42 33.47885 -88.52481 33152 ft 464 kts 51°
2026-04-23 14:43 33.52186 -88.46695 33150 ft 466 kts 45°
2026-04-23 14:43 33.56808 -88.41205 33114 ft 469 kts 44°
2026-04-23 14:44 33.61365 -88.35587 33116 ft 471 kts 45°
2026-04-23 14:44 33.65929 -88.29931 33111 ft 472 kts 45°
2026-04-23 14:45 33.70495 -88.24260 33108 ft 473 kts 45°
2026-04-23 14:45 33.75073 -88.18565 33021 ft 476 kts 45°
2026-04-23 14:46 33.77373 -88.15699 32296 ft 473 kts 45°
2026-04-23 14:46 33.79643 -88.12875 31602 ft 463 kts 45°
2026-04-23 14:46 33.81850 -88.10122 30978 ft 452 kts 45°
2026-04-23 14:46 33.84004 -88.07428 30358 ft 443 kts 45°
2026-04-23 14:47 33.86122 -88.04780 29674 ft 435 kts 45°
2026-04-23 14:47 33.88206 -88.02177 28979 ft 429 kts 45°
2026-04-23 14:47 33.90261 -87.99608 28298 ft 423 kts 45°
2026-04-23 14:47 33.92284 -87.97071 27634 ft 418 kts 45°
2026-04-23 14:48 33.94288 -87.94562 26978 ft 413 kts 45°
2026-04-23 14:48 33.96241 -87.92116 26354 ft 408 kts 45°
2026-04-23 14:48 33.98220 -87.89629 25736 ft 405 kts 45°
2026-04-23 14:48 34.00137 -87.87222 25157 ft 400 kts 45°
2026-04-23 14:49 34.02048 -87.84821 24695 ft 394 kts 45°
2026-04-23 14:49 34.03927 -87.82457 24244 ft 388 kts 45°
2026-04-23 14:49 34.05776 -87.80127 23801 ft 382 kts 45°
2026-04-23 14:49 34.07610 -87.77822 23294 ft 378 kts 45°
2026-04-23 14:50 34.09419 -87.75544 22767 ft 374 kts 45°
2026-04-23 14:50 34.11205 -87.73296 22249 ft 371 kts 45°
2026-04-23 14:50 34.12989 -87.71042 21756 ft 371 kts 45°
2026-04-23 14:50 34.14781 -87.68780 21266 ft 375 kts 45°
2026-04-23 14:51 34.16596 -87.66489 20787 ft 379 kts 45°
2026-04-23 14:51 34.18414 -87.64187 20369 ft 377 kts 45°
2026-04-23 14:51 34.20213 -87.61915 19950 ft 371 kts 45°
2026-04-23 14:51 34.21981 -87.59676 19559 ft 365 kts 45°
2026-04-23 14:52 34.23724 -87.57468 19196 ft 360 kts 45°
2026-04-23 14:52 34.25442 -87.55290 18837 ft 356 kts 45°
2026-04-23 14:52 34.27143 -87.53130 18428 ft 354 kts 45°
2026-04-23 14:52 34.28836 -87.50987 17983 ft 352 kts 45°
2026-04-23 14:53 34.30518 -87.48852 17517 ft 350 kts 45°
2026-04-23 14:53 34.32185 -87.46724 17059 ft 348 kts 45°
2026-04-23 14:53 34.33846 -87.44610 16604 ft 346 kts 45°
2026-04-23 14:53 34.35502 -87.42507 16167 ft 344 kts 45°
2026-04-23 14:54 34.37146 -87.40417 15731 ft 342 kts 45°
2026-04-23 14:54 34.38779 -87.38335 15330 ft 339 kts 46°
2026-04-23 14:54 34.40397 -87.36275 14982 ft 335 kts 46°
2026-04-23 14:54 34.41987 -87.34238 14638 ft 331 kts 46°
2026-04-23 14:55 34.43568 -87.32222 14287 ft 328 kts 46°
2026-04-23 14:55 34.45133 -87.30227 13948 ft 325 kts 46°
2026-04-23 14:55 34.46683 -87.28250 13560 ft 322 kts 46°
2026-04-23 14:55 34.48213 -87.26294 13178 ft 320 kts 46°
2026-04-23 14:56 34.49738 -87.24338 12792 ft 318 kts 47°
2026-04-23 14:56 34.51094 -87.22605 12420 ft 316 kts 47°
2026-04-23 14:56 34.52588 -87.20696 11937 ft 309 kts 48°
2026-04-23 14:56 34.54024 -87.18840 11466 ft 303 kts 47°
2026-04-23 14:57 34.55482 -87.16978 10984 ft 298 kts 47°
2026-04-23 14:57 34.56910 -87.15142 10530 ft 302 kts 48°
2026-04-23 14:57 34.58340 -87.13309 10092 ft 305 kts 48°
2026-04-23 14:57 34.59804 -87.11429 9577 ft 307 kts 48°
2026-04-23 14:58 34.61273 -87.09539 9085 ft 309 kts 48°
2026-04-23 14:58 34.62750 -87.07643 8595 ft 309 kts 48°
2026-04-23 14:58 34.64257 -87.05786 8110 ft 309 kts 42°
2026-04-23 14:58 34.66118 -87.04576 7635 ft 301 kts 18°
2026-04-23 14:59 34.68098 -87.03867 7166 ft 291 kts 16°
2026-04-23 14:59 34.70018 -87.03242 6809 ft 280 kts 14°
2026-04-23 14:59 34.71854 -87.02672 6597 ft 264 kts 14°
2026-04-23 14:59 34.73585 -87.02146 6327 ft 250 kts 14°
2026-04-23 15:00 34.75255 -87.01702 6004 ft 240 kts 11°
2026-04-23 15:00 34.76867 -87.01351 5661 ft 232 kts 10°
2026-04-23 15:00 34.78437 -87.01019 5340 ft 226 kts
2026-04-23 15:00 34.79976 -87.00720 5012 ft 222 kts
2026-04-23 15:01 34.81491 -87.00419 4678 ft 216 kts
2026-04-23 15:01 34.82908 -87.00128 4347 ft 198 kts
2026-04-23 15:01 34.84226 -86.99867 3972 ft 187 kts
2026-04-23 15:01 34.85487 -86.99538 3669 ft 184 kts 14°
2026-04-23 15:02 34.86298 -86.99244 3464 ft 183 kts 17°
2026-04-23 15:02 34.87719 -86.98220 2978 ft 180 kts 58°
2026-04-23 15:02 34.88001 -86.96806 2799 ft 159 kts 86°
2026-04-23 15:02 34.88144 -86.95483 2785 ft 161 kts 86°
2026-04-23 15:03 34.88233 -86.94091 2744 ft 171 kts 90°
2026-04-23 15:03 34.88284 -86.92713 2710 ft 154 kts 90°
2026-04-23 15:03 34.88359 -86.91336 2685 ft 173 kts 90°
2026-04-23 15:03 34.88387 -86.89869 2641 ft 172 kts 90°
2026-04-23 15:04 34.88405 -86.88414 2585 ft 170 kts 96°
2026-04-23 15:04 34.88256 -86.87000 2598 ft 168 kts 101°
2026-04-23 15:04 34.88065 -86.85601 2638 ft 167 kts 103°
2026-04-23 15:04 34.87814 -86.84242 2591 ft 161 kts 114°
2026-04-23 15:05 34.87198 -86.83160 2568 ft 153 kts 129°
2026-04-23 15:05 34.86598 -86.82108 2601 ft 152 kts 127°
2026-04-23 15:05 34.85989 -86.81043 2596 ft 156 kts 128°
2026-04-23 15:05 34.85367 -86.79925 2596 ft 163 kts 126°
2026-04-23 15:06 34.84948 -86.79161 2587 ft 162 kts 126°
2026-04-23 15:06 34.84190 -86.78246 2570 ft 150 kts 159°
2026-04-23 15:06 34.82887 -86.78050 2540 ft 139 kts 178°
2026-04-23 15:06 34.81880 -86.77965 2583 ft 156 kts 179°
2026-04-23 15:07 34.80836 -86.77912 2615 ft 146 kts 181°
2026-04-23 15:07 34.80137 -86.77910 2632 ft 151 kts 182°
2026-04-23 15:07 34.79068 -86.77906 2639 ft 156 kts 183°
2026-04-23 15:07 34.77972 -86.77935 2645 ft 157 kts 184°
2026-04-23 15:08 34.76964 -86.77973 2640 ft 136 kts 184°
2026-04-23 15:08 34.76048 -86.77990 2588 ft 139 kts 182°
2026-04-23 15:08 34.74960 -86.78010 2597 ft 169 kts 182°
2026-04-23 15:09 34.72615 -86.78073 2131 ft 169 kts 185°
2026-04-23 15:09 34.71436 -86.78114 1875 ft 168 kts 182°
2026-04-23 15:09 34.70377 -86.78124 1695 ft 148 kts 181°
2026-04-23 15:09 34.69351 -86.78136 1496 ft 148 kts 181°
2026-04-23 15:10 34.68325 -86.78157 1262 ft 145 kts 181°
2026-04-23 15:10 34.67338 -86.78165 1081 ft 135 kts 180°
2026-04-23 15:10 34.66358 -86.78182 910 ft 145 kts 182°
2026-04-23 15:10 34.65392 -86.78217 713 ft 127 kts 182°
2026-04-23 15:11 34.64658 -86.78237 618 ft 54 kts 181°
2026-04-23 15:11 34.64433 -86.78240 615 ft 26 kts 179°
2026-04-23 15:11 34.64286 -86.78237 621 ft 17 kts 179°
2026-04-23 15:11 34.64191 -86.78205 619 ft 15 kts 139°
2026-04-23 15:12 34.64172 -86.78152 618 ft 0 kts 96°
2026-04-23 15:12 34.64172 -86.78149 617 ft 5 kts 96°
2026-04-23 15:12 34.64181 -86.78059 616 ft 14 kts 71°
2026-04-23 15:12 34.64249 -86.77984 621 ft 13 kts 14°
2026-04-23 15:13 34.64321 -86.77968 622 ft 13 kts 17°
2026-04-23 15:13 34.64388 -86.77901 623 ft 5 kts 44°
2026-04-23 15:13 34.64406 -86.77876 625 ft 12 kts 56°
2026-04-23 15:13 34.64458 -86.77792 619 ft 13 kts 51°
2026-04-23 15:14 34.64519 -86.77697 622 ft 15 kts 51°
2026-04-23 15:14 34.64546 -86.77668 616 ft 0 kts 36°
2026-04-23 15:14 34.64562 -86.77656 616 ft 6 kts 19°
2026-04-23 15:15 34.64602 -86.77677 626 ft 10 kts 319°
2026-04-23 15:15 34.64656 -86.77704 622 ft 1 kts 18°
2026-04-23 15:16 34.64657 -86.77704 622 ft 0 kts 19°
2026-04-23 15:16 34.64658 -86.77703 622 ft 2 kts 25°
2026-04-23 15:17 34.64659 -86.77697 620 ft 1 kts 115°
2026-04-23 15:17 34.64651 -86.77688 619 ft 6 kts 139°
2026-04-23 15:17 34.64617 -86.77647 631 ft 8 kts 118°
2026-04-23 15:17 34.64610 -86.77612 620 ft 1 kts 94°
2026-04-23 15:18 34.64610 -86.77582 616 ft 6 kts 90°
2026-04-23 15:18 34.64610 -86.77562 616 ft 0 kts 90°